Time,TemperatureF,DewpointF,PressureIn,WindDirection,WindDirectionDegrees,WindSpeedMPH,WindSpeedGustMPH,Humidity,HourlyPrecipIn,Conditions,Clouds,dailyrainin,SoftwareType,DateUTC
2017-05-25 00:00:00,62.0,26.8,29.66,WNW,283,1.0,3.0,26,0.00,,FEW150,0.00,VWS V15.00,2017-05-25 07:00:00,
2017-05-25 00:05:00,61.8,26.6,29.66,SW,236,1.0,3.0,26,0.00,,FEW150,0.00,VWS V15.00,2017-05-25 07:05:00,
2017-05-25 00:10:00,61.6,25.5,29.65,WSW,255,0.0,4.0,25,0.00,,FEW150,0.00,VWS V15.00,2017-05-25 07:10:00,
2017-05-25 00:15:00,61.7,25.5,29.65,NW,314,3.0,7.0,25,0.00,,FEW150,0.00,VWS V15.00,2017-05-25 07:15:00,
2017-05-25 00:20:00,62.1,25.9,29.65,NW,326,0.0,7.0,25,0.00,,FEW150,0.00,VWS V15.00,2017-05-25 07:20:00,
2017-05-25 00:25:00,62.2,26.0,29.65,SW,233,0.0,7.0,25,0.00,,FEW150,0.00,VWS V15.00,2017-05-25 07:25:00,
2017-05-25 00:30:00,61.9,26.7,29.65,WNW,302,1.0,7.0,26,0.00,,FEW150,0.00,VWS V15.00,2017-05-25 07:30:00,
2017-05-25 00:35:00,61.6,26.4,29.65,West,275,1.0,7.0,26,0.00,,FEW150,0.00,VWS V15.00,2017-05-25 07:35:00,
2017-05-25 00:40:00,61.1,26.0,29.65,SW,226,0.0,7.0,26,0.00,,FEW150,0.00,VWS V15.00,2017-05-25 07:40:00,
2017-05-25 00:45:00,60.7,26.5,29.65,SSW,209,1.0,7.0,27,0.00,,FEW150,0.00,VWS V15.00,2017-05-25 07:45:00,
2017-05-25 00:50:00,60.3,26.2,29.65,SW,214,0.0,7.0,27,0.00,,FEW150,0.00,VWS V15.00,2017-05-25 07:50:00,
2017-05-25 00:55:00,59.9,25.9,29.65,South,177,0.0,7.0,27,0.00,,FEW150,0.00,VWS V15.00,2017-05-25 07:55:00,
2017-05-25 01:00:00,60.0,26.0,29.65,South,177,0.0,7.0,27,0.00,,FEW150,0.00,VWS V15.00,2017-05-25 08:00:00,
2017-05-25 01:05:00,59.6,25.6,29.65,South,177,0.0,7.0,27,0.00,,FEW150,0.00,VWS V15.00,2017-05-25 08:05:00,
2017-05-25 01:10:00,59.5,25.5,29.65,South,177,0.0,7.0,27,0.00,,FEW150,0.00,VWS V15.00,2017-05-25 08:10:00,
2017-05-25 01:15:00,59.3,25.4,29.65,South,177,0.0,7.0,27,0.00,,FEW150,0.00,VWS V15.00,2017-05-25 08:15:00,
2017-05-25 01:20:00,59.8,24.9,29.65,NE,37,1.0,7.0,26,0.00,,FEW150,0.00,VWS V15.00,2017-05-25 08:20:00,
2017-05-25 01:25:00,59.8,26.6,29.65,SW,219,1.0,7.0,28,0.00,,FEW150,0.00,VWS V15.00,2017-05-25 08:25:00,
2017-05-25 01:30:00,59.4,25.4,29.65,SW,219,0.0,7.0,27,0.00,,FEW150,0.00,VWS V15.00,2017-05-25 08:30:00,
2017-05-25 01:35:00,59.3,25.4,29.65,SW,219,0.0,7.0,27,0.00,,FEW150,0.00,VWS V15.00,2017-05-25 08:35:00,
2017-05-25 01:40:00,59.0,26.0,29.65,SW,222,0.0,7.0,28,0.00,,FEW150,0.00,VWS V15.00,2017-05-25 08:40:00,
2017-05-25 01:45:00,58.4,26.3,29.65,SW,222,0.0,7.0,29,0.00,,FEW150,0.00,VWS V15.00,2017-05-25 08:45:00,
2017-05-25 01:50:00,57.6,26.4,29.65,SW,224,0.0,7.0,30,0.00,,FEW150,0.00,VWS V15.00,2017-05-25 08:50:00,
2017-05-25 01:55:00,56.8,26.5,29.65,SE,135,0.0,7.0,31,0.00,,FEW150,0.00,VWS V15.00,2017-05-25 08:55:00,
2017-05-25 02:00:00,56.7,26.4,29.65,East,93,0.0,0.0,31,0.00,,FEW150,0.00,VWS V15.00,2017-05-25 09:00:00,
2017-05-25 02:01:00,56.7,26.4,29.65,East,93,0.0,0.0,31,0.00,,FEW150,0.00,VWS V15.00,2017-05-25 09:01:00,
2017-05-25 02:06:00,56.5,26.2,29.65,East,79,1.0,1.0,31,0.00,,FEW150,0.00,VWS V15.00,2017-05-25 09:06:00,
2017-05-25 02:11:00,56.3,26.1,29.65,ENE,68,1.0,1.0,31,0.00,,FEW150,0.00,VWS V15.00,2017-05-25 09:11:00,
2017-05-25 02:16:00,56.4,26.2,29.65,East,85,0.0,3.0,31,0.00,,FEW150,0.00,VWS V15.00,2017-05-25 09:16:00,
2017-05-25 02:21:00,56.0,26.6,29.65,ENE,78,1.0,3.0,32,0.00,,FEW150,0.00,VWS V15.00,2017-05-25 09:21:00,
2017-05-25 02:26:00,55.9,27.2,29.65,ENE,59,1.0,3.0,33,0.00,,FEW150,0.00,VWS V15.00,2017-05-25 09:26:00,
2017-05-25 02:31:00,55.9,28.0,29.66,NE,44,1.0,3.0,34,0.00,,FEW150,0.00,VWS V15.00,2017-05-25 09:31:00,
2017-05-25 02:36:00,56.2,28.9,29.65,ESE,119,1.0,3.0,35,0.00,,FEW150,0.00,VWS V15.00,2017-05-25 09:36:00,
2017-05-25 02:41:00,56.2,28.9,29.65,ENE,73,2.0,3.0,35,0.00,,FEW150,0.00,VWS V15.00,2017-05-25 09:41:00,
2017-05-25 02:46:00,56.2,28.9,29.65,East,93,2.0,4.0,35,0.00,,FEW150,0.00,VWS V15.00,2017-05-25 09:46:00,
2017-05-25 02:51:00,56.3,29.0,29.65,NNE,28,1.0,4.0,35,0.00,,FEW150,0.00,VWS V15.00,2017-05-25 09:51:00,
2017-05-25 02:56:00,56.3,29.0,29.65,NNE,30,2.0,5.0,35,0.00,,FEW150,0.00,VWS V15.00,2017-05-25 09:56:00,
2017-05-25 03:01:00,56.3,29.0,29.65,NNE,32,2.0,5.0,35,0.00,,FEW150,0.00,VWS V15.00,2017-05-25 10:01:00,
2017-05-25 03:06:00,56.1,28.8,29.65,ENE,57,1.0,5.0,35,0.00,,FEW150,0.00,VWS V15.00,2017-05-25 10:06:00,
2017-05-25 03:11:00,55.9,29.4,29.65,East,85,0.0,5.0,36,0.00,,FEW150,0.00,VWS V15.00,2017-05-25 10:11:00,
2017-05-25 03:16:00,55.8,29.9,29.66,SSE,165,0.0,5.0,37,0.00,,FEW150,0.00,VWS V15.00,2017-05-25 10:16:00,
2017-05-25 03:21:00,55.3,29.5,29.66,SSW,211,0.0,5.0,37,0.00,,FEW150,0.00,VWS V15.00,2017-05-25 10:21:00,
2017-05-25 03:26:00,54.8,29.0,29.66,South,175,0.0,5.0,37,0.00,,FEW150,0.00,VWS V15.00,2017-05-25 10:26:00,
2017-05-25 03:31:00,54.6,29.5,29.66,SSW,209,0.0,5.0,38,0.00,,FEW150,0.00,VWS V15.00,2017-05-25 10:31:00,
2017-05-25 03:36:00,54.3,29.9,29.66,SSW,208,0.0,5.0,39,0.00,,FEW150,0.00,VWS V15.00,2017-05-25 10:36:00,
2017-05-25 03:41:00,54.0,29.6,29.66,SSW,208,0.0,5.0,39,0.00,,FEW150,0.00,VWS V15.00,2017-05-25 10:41:00,
2017-05-25 03:46:00,54.4,30.0,29.66,East,91,0.0,5.0,39,0.00,,FEW150,0.00,VWS V15.00,2017-05-25 10:46:00,
2017-05-25 03:50:00,54.8,30.3,29.66,East,92,0.0,5.0,39,0.00,,FEW150,0.00,VWS V15.00,2017-05-25 10:50:00,
2017-05-25 03:55:00,54.5,30.7,29.66,East,92,0.0,5.0,40,0.00,,FEW150,0.00,VWS V15.00,2017-05-25 10:55:00,
2017-05-25 04:00:00,54.3,29.9,29.66,ESE,120,0.0,1.0,39,0.00,,FEW150,0.00,VWS V15.00,2017-05-25 11:00:00,
2017-05-25 04:05:00,54.1,30.3,29.66,ESE,105,0.0,1.0,40,0.00,,FEW150,0.00,VWS V15.00,2017-05-25 11:05:00,
2017-05-25 04:10:00,53.1,30.6,29.66,East,89,2.0,3.0,42,0.00,,FEW150,0.00,VWS V15.00,2017-05-25 11:10:00,
2017-05-25 04:15:00,53.3,30.8,29.66,NNE,26,0.0,3.0,42,0.00,,FEW150,0.00,VWS V15.00,2017-05-25 11:15:00,
2017-05-25 04:20:00,53.8,30.7,29.66,NNE,32,1.0,4.0,41,0.00,,FEW150,0.00,VWS V15.00,2017-05-25 11:20:00,
2017-05-25 04:25:00,54.1,30.9,29.66,NNE,28,2.0,4.0,41,0.00,,FEW150,0.00,VWS V15.00,2017-05-25 11:25:00,
2017-05-25 04:30:00,54.2,30.4,29.67,NNE,27,4.0,5.0,40,0.00,,FEW150,0.00,VWS V15.00,2017-05-25 11:30:00,
2017-05-25 04:35:00,54.4,30.6,29.66,North,8,0.0,6.0,40,0.00,,FEW150,0.00,VWS V15.00,2017-05-25 11:35:00,
2017-05-25 04:40:00,54.0,30.9,29.67,NNW,347,0.0,6.0,41,0.00,,FEW150,0.00,VWS V15.00,2017-05-25 11:40:00,
2017-05-25 04:45:00,53.5,31.0,29.67,NNW,337,0.0,6.0,42,0.00,,FEW150,0.00,VWS V15.00,2017-05-25 11:45:00,
2017-05-25 04:50:00,53.2,30.1,29.67,NNE,30,0.0,6.0,41,0.00,,FEW150,0.00,VWS V15.00,2017-05-25 11:50:00,
2017-05-25 04:55:00,53.0,30.0,29.67,NNE,14,1.0,6.0,41,0.00,,FEW150,0.00,VWS V15.00,2017-05-25 11:55:00,
2017-05-25 05:00:00,53.1,30.0,29.67,NNE,18,0.0,6.0,41,0.00,,FEW150,0.00,VWS V15.00,2017-05-25 12:00:00,
2017-05-25 05:05:00,53.0,30.0,29.67,East,86,2.0,6.0,41,0.00,,FEW150,0.00,VWS V15.00,2017-05-25 12:05:00,
2017-05-25 05:15:00,52.8,30.4,29.67,NE,40,2.0,9.0,42,0.00,,FEW150,0.00,VWS V15.00,2017-05-25 12:15:00,
2017-05-25 05:20:00,52.9,29.9,29.67,NE,41,2.0,9.0,41,0.00,,FEW150,0.00,VWS V15.00,2017-05-25 12:20:00,
2017-05-25 05:25:00,52.7,29.7,29.67,ENE,59,1.0,9.0,41,0.00,,FEW150,0.00,VWS V15.00,2017-05-25 12:25:00,
2017-05-25 05:30:00,52.5,30.1,29.68,East,88,2.0,9.0,42,0.00,,FEW150,0.00,VWS V15.00,2017-05-25 12:30:00,
2017-05-25 05:35:00,52.3,29.9,29.68,ENE,65,0.0,9.0,42,0.00,,FEW150,0.00,VWS V15.00,2017-05-25 12:35:00,
2017-05-25 05:40:00,52.2,29.8,29.68,East,83,3.0,9.0,42,0.00,,FEW150,0.00,VWS V15.00,2017-05-25 12:40:00,
2017-05-25 05:45:00,51.4,29.1,29.68,East,99,0.0,9.0,42,0.00,,FEW150,0.00,VWS V15.00,2017-05-25 12:45:00,
2017-05-25 05:50:00,51.4,29.1,29.68,East,99,0.0,9.0,42,0.00,,FEW150,0.00,VWS V15.00,2017-05-25 12:50:00,
2017-05-25 05:55:00,51.4,29.1,29.68,East,99,0.0,9.0,42,0.00,,FEW150,0.00,VWS V15.00,2017-05-25 12:55:00,
2017-05-25 06:00:00,51.4,29.1,29.68,East,99,0.0,0.0,42,0.00,,FEW150,0.00,VWS V15.00,2017-05-25 13:00:00,
2017-05-25 06:05:00,51.4,29.1,29.68,East,99,0.0,0.0,42,0.00,,FEW150,0.00,VWS V15.00,2017-05-25 13:05:00,
2017-05-25 06:10:00,51.4,29.1,29.68,East,99,0.0,0.0,42,0.00,,FEW150,0.00,VWS V15.00,2017-05-25 13:10:00,
2017-05-25 06:15:00,51.4,29.1,29.68,East,99,0.0,0.0,42,0.00,,FEW150,0.00,VWS V15.00,2017-05-25 13:15:00,
2017-05-25 06:20:00,51.4,29.1,29.68,East,99,0.0,0.0,42,0.00,,FEW150,0.00,VWS V15.00,2017-05-25 13:20:00,
2017-05-25 06:25:00,51.4,29.1,29.68,East,99,0.0,0.0,42,0.00,,FEW150,0.00,VWS V15.00,2017-05-25 13:25:00,
2017-05-25 06:30:00,51.4,29.1,29.68,East,99,0.0,0.0,42,0.00,,FEW150,0.00,VWS V15.00,2017-05-25 13:30:00,
2017-05-25 06:40:00,51.4,29.1,29.68,East,99,0.0,0.0,42,0.00,,FEW150,0.00,VWS V15.00,2017-05-25 13:40:00,
2017-05-25 06:45:00,51.4,29.1,29.68,East,99,0.0,0.0,42,0.00,,FEW150,0.00,VWS V15.00,2017-05-25 13:45:00,
2017-05-25 06:50:00,51.4,29.1,29.68,East,99,0.0,0.0,42,0.00,,FEW150,0.00,VWS V15.00,2017-05-25 13:50:00,
2017-05-25 06:55:00,51.4,29.1,29.68,East,99,0.0,0.0,42,0.00,,FEW150,0.00,VWS V15.00,2017-05-25 13:55:00,
2017-05-25 07:00:00,51.4,29.1,29.68,East,99,0.0,0.0,42,0.00,,FEW150,0.00,VWS V15.00,2017-05-25 14:00:00,
2017-05-25 07:01:00,51.4,29.1,29.68,East,99,0.0,0.0,42,0.00,,FEW150,0.00,VWS V15.00,2017-05-25 14:01:00,
2017-05-25 07:06:00,51.4,29.1,29.68,East,99,0.0,0.0,42,0.00,,FEW150,0.00,VWS V15.00,2017-05-25 14:06:00,
2017-05-25 07:11:00,51.4,29.1,29.68,East,99,0.0,0.0,42,0.00,,FEW150,0.00,VWS V15.00,2017-05-25 14:11:00,
2017-05-25 07:16:00,51.4,29.1,29.68,East,99,0.0,0.0,42,0.00,,FEW150,0.00,VWS V15.00,2017-05-25 14:16:00,
2017-05-25 07:21:00,55.6,33.5,29.68,North,358,2.0,3.0,43,0.00,,FEW150,0.00,VWS V15.00,2017-05-25 14:21:00,
2017-05-25 07:26:00,55.5,33.4,29.68,NNW,335,0.0,3.0,43,0.00,,FEW150,0.00,VWS V15.00,2017-05-25 14:26:00,
2017-05-25 07:31:00,56.0,34.4,29.68,NNE,30,0.0,3.0,44,0.00,,FEW150,0.00,VWS V15.00,2017-05-25 14:31:00,
2017-05-25 07:36:00,56.2,34.6,29.68,NNW,338,0.0,3.0,44,0.00,,FEW150,0.00,VWS V15.00,2017-05-25 14:36:00,
2017-05-25 07:41:00,56.8,33.4,29.68,NNE,18,0.0,3.0,41,0.00,,FEW150,0.00,VWS V15.00,2017-05-25 14:41:00,
2017-05-25 07:46:00,57.9,33.1,29.68,NNE,18,0.0,3.0,39,0.00,,FEW150,0.00,VWS V15.00,2017-05-25 14:46:00,
2017-05-25 07:51:00,57.8,33.0,29.68,NNE,16,0.0,3.0,39,0.00,,FEW150,0.00,VWS V15.00,2017-05-25 14:51:00,
2017-05-25 07:56:00,58.8,33.9,29.68,NNE,16,0.0,3.0,39,0.00,,FEW150,0.00,VWS V15.00,2017-05-25 14:56:00,
2017-05-25 08:01:00,60.0,34.3,29.68,NNE,16,0.0,0.0,38,0.00,,FEW150,0.00,VWS V15.00,2017-05-25 15:01:00,
2017-05-25 08:06:00,60.3,32.6,29.68,NW,315,0.0,2.0,35,0.00,,FEW150,0.00,VWS V15.00,2017-05-25 15:06:00,
2017-05-25 08:11:00,60.7,33.6,29.68,NW,315,0.0,2.0,36,0.00,,FEW150,0.00,VWS V15.00,2017-05-25 15:11:00,
2017-05-25 08:16:00,62.4,32.9,29.68,SW,214,0.0,2.0,33,0.00,,FEW150,0.00,VWS V15.00,2017-05-25 15:16:00,
2017-05-25 08:21:00,63.2,34.4,29.68,SSW,194,0.0,2.0,34,0.00,,FEW150,0.00,VWS V15.00,2017-05-25 15:21:00,
2017-05-25 08:26:00,63.1,33.6,29.68,SW,223,0.0,2.0,33,0.00,,FEW150,0.00,VWS V15.00,2017-05-25 15:26:00,
2017-05-25 08:31:00,62.9,34.1,29.68,East,101,1.0,2.0,34,0.00,,FEW150,0.00,VWS V15.00,2017-05-25 15:31:00,
2017-05-25 08:36:00,62.9,35.6,29.68,SW,218,0.0,2.0,36,0.00,,FEW150,0.00,VWS V15.00,2017-05-25 15:36:00,
2017-05-25 08:41:00,63.1,32.8,29.68,SW,221,0.0,2.0,32,0.00,,FEW150,0.00,VWS V15.00,2017-05-25 15:41:00,
2017-05-25 08:46:00,62.9,34.1,29.68,SSW,207,1.0,2.0,34,0.00,,FEW150,0.00,VWS V15.00,2017-05-25 15:46:00,
2017-05-25 08:50:00,63.0,32.7,29.68,NNW,328,1.0,2.0,32,0.00,,FEW150,0.00,VWS V15.00,2017-05-25 15:50:00,
2017-05-25 08:55:00,63.0,34.2,29.68,SW,221,0.0,2.0,34,0.00,,FEW150,0.00,VWS V15.00,2017-05-25 15:55:00,